Regional Weather Roundup
Issued by NWS

Home | Current Version | Previous Version | Graphics & Text | Print | Product List | Glossary On
Versions: 1 2 3 4 5 6 7 8 9 10 11 12 13 14 15 16 17 18 19 20 21 22 23 24 25 26 27 28 29 30 31 32 33 34 35 36 37 38 39 40 41 42 43 44 45 46 47 48 49 50
000
ASUS43 KIND 210309
RWRIN

WEATHER ROUNDUP FOR INDIANA
NATIONAL WEATHER SERVICE INDIANAPOLIS IN
1100 PM EDT FRI OCT 20 2017

NOTE: "FAIR" INDICATES FEW OR NO CLOUDS BELOW 12,000 FEET WITH NO
SIGNIFICANT WEATHER AND/OR OBSTRUCTIONS TO VISIBILITY.

* - STATION DOES NOT REPORT WEATHER SUCH AS PRECIPITATION OR FOG.

+ - STATION NOT QUALITY CONTROLLED BY THE NATIONAL WEATHER SERVICE.
    USE DATA WITH CAUTION...ESPECIALLY DEWPOINT AND RELATIVE
    HUMIDITY OBSERVATIONS.

INZ001>003-010>013-019-020-210400-
NORTHWEST INDIANA

CITY           SKY/WX    TMP DP  RH WIND       PRES   REMARKS
GARY /AIRPORT/ PTCLDY    68  46  45 S8        30.08S
KNOX *+        CLOUDY    59  50  72 S6        30.12R
LA PORTE +     CLOUDY    61  49  65 S5        30.12R
MICHIGAN CITY+ CLOUDY    64  46  52 S8        30.10R
MONTICELLO +   PTCLDY    61  50  67 S3        30.12S
RENSSELAER +   PTCLDY    61  41  48 S8        30.11S
VALPARAISO     CLOUDY    63  50  62 S5        30.11R

$$

LMZ046-743>745-210400-
SOUTHERN LAKE MICHIGAN

STATION/POSITION TIME  TEMP    WIND        PRES    WAVE
                       AIR SEA DIR/SP/G            HT
                 (UTC) (F)     (DEG/KT/KT) (MB)    (FT)
BURNS HARBOR     0240   67     180/ 12/ 18 1019.0R
MICHIGAN CITY    0240   68     160/ 12/ 15   N/A
5NW MICH CITY    0300   63 58  180/ 10/ 12   N/A     1

$$

INZ004-005-014>016-021>024-210400-
NORTH CENTRAL INDIANA

CITY           SKY/WX    TMP DP  RH WIND       PRES   REMARKS
GOSHEN         CLEAR     62  48  60 S10       30.12S
LOGANSPORT +   PTCLDY    54  46  76 S5        30.14S
PERU/GRISSOM   PTCLDY    60  50  69 S8        30.13S
SOUTH BEND     PTCLDY    61  50  67 S8        30.12R
WARSAW +       CLEAR     59  48  67 CALM      30.13F

$$

INZ006>009-017-018-025>027-210400-
NORTHEAST INDIANA

CITY           SKY/WX    TMP DP  RH WIND       PRES   REMARKS
AUBURN +       CLEAR     59  48  67 CALM      30.16S
FORT WAYNE     PTCLDY    57  49  74 S8        30.16S
HUNTINGTON +   CLEAR     56  47  72 SE3       30.15S
KENDALLVILLE + CLEAR     59  50  73 S6        30.15S

$$

INZ028-029-035-036-043>045-051>053-210400-
WEST CENTRAL INDIANA

CITY           SKY/WX    TMP DP  RH WIND       PRES   REMARKS
CRAWFORDSVL +  CLOUDY    54  48  82 SE7       30.14
GREENCASTLE +  CLOUDY    54  46  76 CALM      30.15S
LAFAYETTE      PTCLDY    54  48  80 CALM      30.12S
TERRE HAUTE    PTCLDY    59  48  67 S5        30.13S

$$

INZ030>032-037>040-046>048-054>057-064-065-210400-
CENTRAL INDIANA

CITY           SKY/WX    TMP DP  RH WIND       PRES   REMARKS
CP ATTERBURY + CLOUDY    52  48  87 CALM      30.18S
FISHERS *+     CLEAR     57  52  82 S5        30.16R
FRANKFORT +    PTCLDY    58  51  75 CALM      30.15S
GREENWOOD *+   CLEAR     64  51  62 S6        30.17R
INDIANAPOLIS   PTCLDY    63  49  60 S9        30.16R
-EAGLE CREEK   CLEAR     61  49  64 SE3       30.15R
KOKOMO +       PTCLDY    58  49  72 S9        30.16R
MT COMFORT *+  CLEAR     59  52  77 S3        30.17R
SHELBYVILLE    CLEAR     55  47  74 SE6       30.17R
ZIONSVILLE +   CLEAR     58  49  71 S5        30.16S

$$

INZ033-034-041-042-049-050-058-059-210400-
EAST CENTRAL INDIANA

CITY           SKY/WX    TMP DP  RH WIND       PRES   REMARKS
MUNCIE         CLEAR     64  51  62 S7        30.17R
RICHMOND +     CLEAR     54  50  87 S7        30.20S

$$

INZ060-061-067>069-081>083-085>088-210400-
SOUTHWEST INDIANA

CITY           SKY/WX    TMP DP  RH WIND       PRES   REMARKS
EVANSVILLE     PTCLDY    58  50  75 CALM      30.15R
HUNTINGBURG +  CLOUDY    59  50  72 SE6       30.16S
WASHINGTON +   PTCLDY    55  48  76 S5        30.15S

$$

INZ062-063-066-070>080-084-089>092-210400-
SOUTH CENTRAL AND SOUTHEAST INDIANA

CITY           SKY/WX    TMP DP  RH WIND       PRES   REMARKS
BEDFORD +      CLOUDY    59  48  67 SE3       30.16S
BLOOMINGTON    PTCLDY    62  48  60 SE5       30.16S
MADISON *+     CLEAR     54  50  87 CALM      30.21S
NORTH VERNON + CLOUDY    57  50  77 SE3       30.18S
SEYMOUR +      CLOUDY    59  50  72 SE3       30.17S

$$





USA.gov is the U.S. government's official web portal to all federal, state and local government web resources and services.